[ hide orbit diagram ]
For accurate long-term ephemerides, please instead use our Horizons system.This orbit viewer was implemented using two-body methods, and hence should not be used for determining accurate long-term trajectories (over several years or decades) or planetary encounter circumstances.
Orbital Elements at Epoch 2459000.5 (2020-May-31.0) TDB
Reference: JPL 3 (heliocentric ecliptic J2000)
Element | Value | Uncertainty (1-sigma) | Units |
e | .2283776499136884 | 1.5129e-07 | |
a | 2.572048630742862 | 6.252e-08 | au |
q | 1.984650208990087 | 4.151e-07 | au |
i | 33.12678316150261 | 1.7914e-05 | deg |
node | 41.28119611423722 | 9.3512e-06 | deg |
peri | 152.5338540562058 | 3.8364e-05 | deg |
M | 26.52560938755629 | 2.8677e-05 | deg |
tp | 2458889.485409920139 (2020-Feb-09.98540992) | 0.00012224 | TDB |
period | 1506.666702537608 4.13 | 5.4935e-05 1.504e-07 | d yr |
n | .2389380474086729 | 8.7119e-09 | deg/d |
Q | 3.159447052495638 | 7.6798e-08 | au |
|
| | Orbit Determination Parameters
Additional Information
|
[ show covariance matrix ]
Physical Parameter Table
Parameter |
Symbol |
Value |
Units |
Sigma |
Reference |
Notes |
absolute magnitude |
H |
16.5 |
|
.23091 |
E2020O85 |
autocmod 2.8 |
|
[ show close-approach data ]
Alternate Designations
2016 FE71 = 2020 DL3 = 2020 JB4 |
|
|